dimanche 13 mai 2018

Vous pouvez trouver Le classement original sur : http://www.trailesneux.be/resultats-uitslagen
 
LE TRAIL D'ESNEUX
DISTANCE 31.00 km
dimanche 13 mai 2018
 
Place dos NOM Equipe Catégorie Pl/cat temps temps/km Vitesse
01:00:00                
1 3865 STIJN VAN LOKEREN TEAM TRAIL SALOMON B SENIORS 1 02:13:02 04:17 13.98
2 3696 BENOÎT LAMBOTTE TEAM QU.BE VÉTÉRANS 1 1 02:14:40 04:21 13.81
3 3737 ARNAUD MAQUET - SENIORS 2 02:24:36 04:40 12.86
4 3549 JEAN-POL COLSON - VÉTÉRANS 3 1 02:24:41 04:40 12.86
5 3557 OLIVIER DE CLERCQ - SENIORS 3 02:28:56 04:48 12.49
6 3710 THOMAS LATIN - SENIORS 4 02:32:09 04:54 12.22
7 3533 HUGUES CELENTIN BELVYLE TEAM SENIORS 5 02:33:52 04:58 12.09
8 3687 GILLES JÉRÔME BELVYLE TEAM SENIORS 6 02:36:42 05:03 11.87
9 3647 XAVIER GOMEZ AFTERTRAILTEAM(ATT) VÉTÉRANS 1 2 02:37:48 05:05 11.79
10 3889 MARTIN WIJKER - SENIORS 7 02:39:19 05:08 11.67
11 3728 LUC LODEWIJCKX VACH VÉTÉRANS 2 1 02:41:08 05:12 11.54
12 3860 BENNY VAN GENECHTEN JMT MOL VÉTÉRANS 1 3 02:41:59 05:14 11.48
13 3598 DAVID DIELENS NIJLENSE ATLETIEKVRI VÉTÉRANS 1 4 02:43:29 05:16 11.38
14 3838 RELI TODEA - VÉTÉRANS 1 5 02:43:30 05:16 11.38
15 4079 PETRU GRAMA - XXX   02:44:39 05:19 11.30
16 3607 THOMAS DOUVEN POCHT'RUNNING SENIORS 8 02:44:42 05:19 11.29
17 3590 OLIVIER DESCAMPS RUNNERS EVERGEM VÉTÉRANS 2 2 02:45:53 05:21 11.21
18 3810 BENOÎT SCHOUMACKERS - VÉTÉRANS 1 6 02:46:08 05:22 11.20
19 3690 ALRIK KALSBEEK HAAG ATLETIEK VÉTÉRANS 1 7 02:46:24 05:22 11.18
20 4108 CLAUDE VARLET - VÉTÉRANS 2 3 02:46:38 05:23 11.16
21 3709 JULIEN LANSIVAL - XXX   02:46:57 05:23 11.14
22 3632 FABRICE GARCIA AFTERTRAIL TEAM VÉTÉRANS 1 8 02:46:58 05:23 11.14
23 3678 ROBIN JANS JMT MOL SENIORS 9 02:47:27 05:24 11.11
24 3608 RAPHAEL DUMONT - SENIORS 10 02:47:43 05:25 11.09
25 3627 NILS FOERSTER - XXX   02:47:52 05:25 11.08
26 3826 CHRISTOPHE STALS - SENIORS 11 02:48:37 05:26 11.03
27 3840 CHARLES TROUPIN - SENIORS 12 02:48:48 05:27 11.02
28 3539 DIETER CLAES ACHILLES RUN4FUN SENIORS 13 02:48:59 05:27 11.01
29 3616 ROMAIN ESTE BELVYLE TEAM SENIORS 14 02:52:21 05:34 10.79
30 3571 THIERRY DE VREESE RCG BLANCO BEERNEM VÉTÉRANS 1 9 02:52:29 05:34 10.78
31 3536 JEAN-FRANÇOIS CHARLIER BBIKE TRI TEAM SENIORS 15 02:53:31 05:36 10.72
32 3634 BORIS GAYET - VÉTÉRANS 1 10 02:53:56 05:37 10.69
33 3587 MAXIME DELVOYE LE PETIT BAR PLX SENIORS 16 02:53:56 05:37 10.69
34 3796 DENIS RAETS TRAIL FOR FUN XXX   02:55:24 05:39 10.60
35 3827 WIM STEINBUSCH GEEN VÉTÉRANS 1 11 02:55:52 05:40 10.58
36 3509 GEERT BAETENS VEDETTE SPORT TRAIL VÉTÉRANS 2 4 02:55:56 05:41 10.57
37 3717 GILLES LEBOUTTE - SENIORS 17 02:56:06 05:41 10.56
38 3795 PASCAL POUPIER TEAM DOM VÉTÉRANS 1 12 02:56:07 05:41 10.56
39 3850 ERIK-JAN VAN DE VOORT AV 'T JASPER SPORT VÉTÉRANS 2 5 02:56:46 05:42 10.52
40 3669 JEAN-PHILIPPE HORTEN - SENIORS 18 02:56:49 05:42 10.52
41 3657 GILLES GUILLAUME - SENIORS 19 02:56:51 05:42 10.52
42 3808 LUDOVIC RICHEL - SENIORS 20 02:58:46 05:46 10.40
43 4078 JOHNY NELISSEN SLIM BEWEGEN VÉTÉRANS 1 13 02:59:02 05:47 10.39
44 3519 MARC BINARD RCAE_ULIÈGE VÉTÉRANS 3 2 02:59:04 05:47 10.39
45 3735 CHRISTOPHE LUCAS - VÉTÉRANS 1 14 02:59:23 05:47 10.37
46 3779 LEON PERSOON - SENIORS 21 02:59:25 05:47 10.37
47 4001 J MARC CABAY - VÉTÉRANS 2 6 02:59:50 05:48 10.34
48 3780 PIERRE WILLEMS - VÉTÉRANS 1 15 03:00:46 05:50 10.29
49 3576 ADRIEN DECONNINCK RTC SENIORS 22 03:02:02 05:52 10.22
50 3631 ETIENNE GANDIN - SENIORS 23 03:02:18 05:53 10.20
51 3867 MICHAEL VANDENDRIESSCHE - VÉTÉRANS 1 16 03:02:24 05:53 10.20
52 3897 STÉPHANE WINAND - VÉTÉRANS 1 17 03:02:29 05:53 10.19
53 3680 CAROLINE JANSEN - XXX   03:02:34 05:53 10.19
54 3518 FABRICE BIASINO - VÉTÉRANS 1 18 03:02:56 05:54 10.17
55 3660 HENDRIKE HATZMANN TV KONZEN DAMES 1 03:03:15 05:55 10.15
56 3655 MARK GROENEWEG MUDSWEATTRAILS VÉTÉRANS 1 19 03:03:16 05:55 10.15
57 3506 JEAN-PAUL ANCIAUX TEAM TRAIL SINGLE TR VÉTÉRANS 1 20 03:03:20 05:55 10.15
58 3799 OLIVIER RENARD HAMOK VÉTÉRANS 1 21 03:04:06 05:56 10.10
59 3698 CHRISTOPHE LAMBOTTE PAS DE CLUB XXX   03:05:24 05:59 10.03
60 3668 STEVEN HEYMAN - SENIORS 24 03:05:41 05:59 10.02
61 3545 THOMAS COLLIER - SENIORS 25 03:06:21 06:01 9.98
62 3638 CHRISTOPHE GERARD G4R SENIORS 26 03:06:24 06:01 9.98
63 3853 MICHAEL VAN DEN REYM - SENIORS 27 03:06:36 06:01 9.97
64 3550 PASCAL CORDIER UTT VÉTÉRANS 1 22 03:06:59 06:02 9.95
65 3767 LAURENT NÉMÉGAIRE LES COUREURS ORPOIS VÉTÉRANS 1 23 03:06:59 06:02 9.95
66 3665 ERIC HENDRICKX - VÉTÉRANS 1 24 03:07:01 06:02 9.95
67 3739 YANNICK MASY - SENIORS 28 03:07:18 06:03 9.93
68 3558 HANS DE CUYPER - VÉTÉRANS 1 25 03:08:31 06:05 9.87
69 3666 BENJAMIN HESMANS - SENIORS 29 03:10:29 06:09 9.76
70 3824 SELIM SOLTANI - SENIORS 30 03:10:41 06:09 9.75
71 3806 KURT REYNDERS - VÉTÉRANS 1 26 03:10:45 06:09 9.75
72 3859 MAARTEN VAN GEET - VÉTÉRANS 1 27 03:10:50 06:09 9.75
73 3686 JEAN-FRANÇOIS JENNES - XXX   03:11:50 06:11 9.70
74 3729 MARC LONEUX - VÉTÉRANS 1 28 03:12:49 06:13 9.65
75 3503 CHRISTOPHE ALLEAUME - VÉTÉRANS 2 7 03:13:44 06:15 9.60
76 3805 LORENZO RESENTE NA VÉTÉRANS 1 29 03:14:15 06:16 9.58
77 3798 JEAN-PHILIPPE RATINCKX RIWA SENIORS 31 03:15:01 06:17 9.54
78 3836 RAF THYS - VÉTÉRANS 1 30 03:15:13 06:18 9.53
79 3898 PIERRE WISER SER ATHL SENIORS 32 03:15:59 06:19 9.49
80 3597 FREDERIK DIDDEN - SENIORS 33 03:16:24 06:20 9.47
81 3772 CHRISTOPHE PARTHOENS - VÉTÉRANS 1 31 03:16:28 06:20 9.47
82 4015 PAOLO BRUCCOLERI - VÉTÉRANS 2 8 03:17:34 06:22 9.41
83 3877 BERND VERGOUWEN AVT NEEROETEREN VÉTÉRANS 1 32 03:17:56 06:23 9.40
84 3537 MICHAEL CHRAMTCHENKO - SENIORS 34 03:18:13 06:24 9.38
85 3753 VINCENT MEUNIER - SENIORS 35 03:19:28 06:26 9.32
86 3522 CEDRIC BODSON - VÉTÉRANS 1 33 03:19:51 06:27 9.31
87 3788 AUDREY PITZ - DAMES 2 03:20:11 06:27 9.29
88 3787 BERNARD PITZ - VÉTÉRANS 3 3 03:20:11 06:27 9.29
89 3825 CAROLE STALPORT LES FRELONS HUY DAMES 3 03:20:47 06:29 9.26
90 3908 JULIEN ZANETTIN - XXX   03:21:23 06:30 9.24
91 3905 JEAN LOUIS WOLFS - SENIORS 36 03:21:23 06:30 9.24
92 3541 CHRISTOPHE CLERBOIS - VÉTÉRANS 1 34 03:22:09 06:31 9.20
93 4091 XAVIER THOMAS - VÉTÉRANS 1 35 03:22:21 06:32 9.19
94 3719 NICOLE LEINDERS UNITAS DAMES 4 03:22:56 06:33 9.17
95 3852 TON VAN DEN ESSEN - VÉTÉRANS 2 9 03:22:56 06:33 9.17
96 3629 FRANÇOIS FRANSSENS SWIFT RUNNING CLUB SENIORS 37 03:23:22 06:34 9.15
97 3552 JULIEN CRASBORN - SENIORS 38 03:23:43 06:34 9.13
98 3551 CHRISTIANE CRANSVELD TTF AINÉES 1 1 03:24:02 06:35 9.12
99 3725 JEAN-LOUIS LEUPE LDLV VÉTÉRANS 2 10 03:24:03 06:35 9.12
100 3625 CAROLINE FLAGOTHIER - AINÉES 1 2 03:24:13 06:35 9.11
101 3535 NICOLAS CHABOTEAUX TAF SENIORS 39 03:24:14 06:35 9.11
102 3843 FRANÇOIS VALOIR POCHT'RUNNING SENIORS 40 03:24:25 06:36 9.10
103 3708 JEAN LANGHENDRIES - SENIORS 41 03:25:12 06:37 9.06
104 3529 NICOLAS G. BRAHAM - SENIORS 42 03:25:14 06:37 9.06
105 3770 PINO PALUMBO - VÉTÉRANS 3 4 03:25:20 06:37 9.06
106 3749 ALAIN MERCY - SENIORS 43 03:25:37 06:38 9.05
107 3888 SÉBASTIEN WÉRY TRIATHLIÈGE SENIORS 44 03:25:45 06:38 9.04
108 3675 FRÉDÉRIC HOURLAY - VÉTÉRANS 1 36 03:26:37 06:40 9.00
109 3756 JEAN-SÉBASTIEN MICHEL - VÉTÉRANS 1 37 03:26:38 06:40 9.00
110 3837 WAIYEN TO GENT RUNNING TEAM AINÉES 1 3 03:26:51 06:40 8.99
111 3807 DAVID RIA VACH VÉTÉRANS 1 38 03:27:20 06:41 8.97
112 3527 PASCAL BOURDOUXHE PTIT BAR TEAM VÉTÉRANS 1 39 03:27:40 06:42 8.96
113 3738 FRANK MARIËN PTI BAR TEAM VÉTÉRANS 1 40 03:27:40 06:42 8.96
114 3892 LIEVEN WILLEMS GENT RUNNING TEAM VÉTÉRANS 1 41 03:27:55 06:42 8.95
115 3830 CHRISTOPHE TASSET POCHT'RUNNING SENIORS 45 03:28:12 06:43 8.93
116 3816 THOMAS SCHYNS ILR LIÈGE SENIORS 46 03:28:14 06:43 8.93
117 3855 RUDI VAN DEPOEL HETRIC VÉTÉRANS 2 11 03:28:16 06:43 8.93
118 3530 KRIS BRANS - VÉTÉRANS 1 42 03:28:47 06:44 8.91
119 3569 MICHAEL DE SMET - SENIORS 47 03:28:58 06:44 8.90
120 3870 ARNAUD VARLET - XXX   03:29:27 06:45 8.88
121 3567 GUILLAUME DE MARCHIN - SENIORS 48 03:30:21 06:47 8.84
122 3570 JEAN-BENOIT DE STAERCKE - VÉTÉRANS 3 5 03:31:30 06:49 8.79
123 3817 GAËTAN SEPULCHRE I LOVE RUNNING SENIORS 49 03:31:55 06:50 8.78
124 3899 PATRICK WITMEUR - VÉTÉRANS 2 12 03:32:10 06:51 8.77
125 3887 MAXIM WEBER - ESPOIRS H 1 03:33:09 06:53 8.73
126 3815 JAN SCHOUTEN - VÉTÉRANS 1 43 03:33:12 06:53 8.72
127 3730 LAURENT LOUYET - VÉTÉRANS 1 44 03:34:20 06:55 8.68
128 3832 JEAN-CHRISTOPHE THIRY - VÉTÉRANS 1 45 03:34:36 06:55 8.67
129 3878 MAXIME VERHULST - VÉTÉRANS 1 46 03:36:07 06:58 8.61
130 3784 CATHERINE PIRARD - AINÉES 1 4 03:37:37 07:01 8.55
131 3586 MARC DELVENNE - VÉTÉRANS 2 13 03:37:40 07:01 8.55
132 3736 REMI LUXEN - VÉTÉRANS 2 14 03:37:59 07:02 8.53
133 3538 JOSEPH CIULLA - AINÉES 2 1 03:38:22 07:03 8.52
134 3705 VIRGINIE LAMOUR - DAMES 5 03:38:43 07:03 8.50
135 3595 NOELLE DEWULF NINGLINSPOTES AINÉES 1 5 03:38:43 07:03 8.50
136 3603 RENAUD DOUFFET - SENIORS 50 03:39:25 07:05 8.48
137 3577 JEAN-LUC DEFECHEREUX - VÉTÉRANS 3 6 03:39:25 07:05 8.48
138 3896 GAETAN WILLEMS TDA VÉTÉRANS 1 47 03:39:34 07:05 8.47
139 3521 BENJAMIN BLODEN SAMCRO SENIORS 51 03:41:10 07:08 8.41
140 3677 HUGO HUYGEBAERT RACING GENT BLANCO B VÉTÉRANS 2 15 03:44:05 07:14 8.30
141 4016 PATJE BLIECK - XXX   03:46:50 07:19 8.20
142 3848 JULIE VAN BOGAERT - DAMES 6 03:48:02 07:21 8.16
143 3894 BRUNO WILLEMS - XXX   03:48:37 07:22 8.14
144 3630 ALISSON FRENDA - DAMES 7 03:48:54 07:23 8.13
145 3588 PIERRE-FRANCOIS DEMEULDRE - SENIORS 52 03:48:54 07:23 8.13
146 4086 FRANK DE NIEL - VÉTÉRANS 1 48 03:49:35 07:24 8.10
147 3658 STIJN GYSEN - VÉTÉRANS 1 49 03:49:35 07:24 8.10
148 3747 PHILIPPE MELSENS - SENIORS 53 03:49:48 07:25 8.09
149 3777 INGE PELEMANS - AINÉES 1 6 03:51:00 07:27 8.05
150 3820 PHILIPPE SIMON - VÉTÉRANS 1 50 03:51:01 07:27 8.05
151 3880 MYRIAM VROLIX SLIM BEWEGEN AINÉES 1 7 03:51:09 07:27 8.05
152 3515 LACROIX BERNARD BORN TO RUN VÉTÉRANS 3 7 03:52:45 07:30 7.99
153 3789 QUENTIN PLAQUET FANAJOGG VÉTÉRANS 3 8 03:52:46 07:31 7.99
154 3720 FANNY LEMOINE - DAMES 8 03:52:58 07:31 7.98
155 3851 NOELLE VAN DEN EEDE - AINÉES 1 8 03:52:59 07:31 7.98
156 3691 ASTRID KAMST LEFFEGOZERS DAMES 9 03:53:36 07:32 7.96
157 3648 RIK GORIS LEFFEGOZERS VÉTÉRANS 1 51 03:53:37 07:32 7.96
158 3879 THIERRY VERSTICHEL - VÉTÉRANS 2 16 03:54:04 07:33 7.95
159 3635 BERTRAND GEETS - VÉTÉRANS 1 52 03:55:32 07:36 7.90
160 3532 AUDREY BRONSART - XXX   03:56:09 07:37 7.88
161 3689 CÉCILE KAIRIS - AINÉES 1 9 03:56:34 07:38 7.86
162 3693 COR KORT AV HEERENVEEN VÉTÉRANS 2 17 03:57:53 07:40 7.82
163 3755 ALINE MICHA BETRAIL DAMES 10 03:59:20 07:43 7.77
164 3517 FERRY BERVOETS SOCIAL MILE VÉTÉRANS 2 18 03:59:35 07:44 7.76
165 3578 NICOLAAS DEGROOTE NAC VÉTÉRANS 1 53 03:59:43 07:44 7.76
166 3868 JAN VANHAESEBROUCK - VÉTÉRANS 1 54 03:59:58 07:44 7.75
167 3520 CAROLINE BLOCKX NINGLINS'POTES XXX   03:59:58 07:44 7.75
168 3760 JOHAN NEERHOF BLIXEMSNEL VÉTÉRANS 2 19 04:02:45 07:50 7.66
169 3667 ROLAND HEUVELMANS BLIXEMSNEL VÉTÉRANS 2 20 04:02:45 07:50 7.66
170 3531 AARNOUT BROMBACHER BLIXEMSNEL VÉTÉRANS 2 21 04:02:47 07:50 7.66
171 3640 JEAN-LOUIS GIELEN - VÉTÉRANS 1 55 04:02:49 07:50 7.66
172 3501 DANIEL ALBERTON MÊME PAS PEUR VÉTÉRANS 2 22 04:06:37 07:57 7.54
173 3876 MARY-LOU VELDKAMP TRECHO AINÉES 2 2 04:07:23 07:59 7.52
174 3890 RENS WIJNANDS TRECHO VÉTÉRANS 1 56 04:07:23 07:59 7.52
175 3650 JEAN GRENADE CNCD 11 11 11 VÉTÉRANS 3 9 04:07:42 07:59 7.51
176 3568 ELS DE MEULENAERE GENT RUNNING TEAM AINÉES 2 3 04:08:42 08:01 7.48
177 3639 LI GIELEN - VÉTÉRANS 1 57 04:10:14 08:04 7.43
178 3745 RAPHAEL MATHIEU - SENIORS 54 04:10:54 08:06 7.41
179 3513 RENILDE BAUDEMPREZ ACKO AINÉES 1 10 04:13:29 08:11 7.34
180 3875 MAARTEN VD IJSSEL NVT VÉTÉRANS 2 23 04:13:44 08:11 7.33
181 3857 REMCO VAN DER LAAN NVT VÉTÉRANS 2 24 04:13:44 08:11 7.33
182 3589 JUSTINE DENEUMOSTIER - DAMES 11 04:13:47 08:11 7.33
183 3599 KYUNG DOCHAIN - AINÉES 1 11 04:14:07 08:12 7.32
184 3566 MATHIEU DE LILLE ZATEAM VÉTÉRANS 2 25 04:14:40 08:13 7.30
185 3601 THUYEN DOCHAIN BETRAIL AINÉES 1 12 04:15:09 08:14 7.29
186 3542 LAURENT CLÉRIN GAG VÉTÉRANS 2 26 04:16:28 08:16 7.25
187 3514 FLORENCE BEAUWENS - DAMES 12 04:21:17 08:26 7.12
188 3856 ASTRID VAN DER BORN AVANTRI AINÉES 2 4 04:21:53 08:27 7.10
189 3758 MAUREEN MOERMAN - DAMES 13 04:24:13 08:31 7.04
190 3831 VERONIQUE THIEBAUT - AINÉES 2 5 04:25:05 08:33 7.02
191 3774 DAMIEN PAUQUET - SENIORS 55 04:25:23 08:34 7.01
192 3785 ERIC PIRONNET - VÉTÉRANS 2 27 04:27:09 08:37 6.96
193 3751 JEROEN MESSING - VÉTÉRANS 1 58 04:29:50 08:42 6.89